カタログに戻る

DELTA 1 DEB

運用中SSO
NORAD 10768·DEBRIS·🇺🇸 United States

打ち上げ Jul 29, 1976 から Vandenberg Space Force Base

Loading…

次のパス (今後24時間)

TLE

最新Source: Space-Track

元期: Sep 14, 2026, 03:04 UTC

1 10768U 76077BR  26257.12822671  .00000059  00000-0  88888-3 0  9997
2 10768 102.3416 329.9686 0074194 152.6426 237.5971 12.28580810247096

AllMySatでDELTA 1 DEBをリアルタイム追跡

Download on the App Store